Presure
316 363 372 386 337 216 220 228 198 228 210 194 194 188 197 193 200 203 191 201 217 197 151 159 163 135 132 150 123 138 169 138 145 148 155 118 94 96 88 82 130 90 91 94 91
326 327 373 362 344 236 223 218 231 215 218 197 198 183 192 194 185 200 197 198 204 211 217 190 157 216 182 168 178 146 165 197 128 139 147 110 82 90 120 101 115 81 106 103 146
336 331 358 352 342 335 238 217 205 241 224 212 201 193 193 193 187 192 201 204 206 206 208 218 206 198 158 162 214 127 131 131 142 179 139 144 142 103 157 96 130 136 146 145 142
341 341 297 346 342 335 248 256 238 213 214 216 206 199 193 182 192 194 185 191 194 200 195 196 207 210 211 217 175 134 215 131 170 157 138 182 198 148 132 161 136 140 132 141 100
344 334 340 339 352 342 271 254 250 238 238 219 219 212 195 192 196 193 190 202 132 139 202 202 203 206 193 197 130 213 205 160 204 134 212 125 165 238 150 152 127 132 138 97 101
325 361 367 350 328 380 361 258 243 246 228 229 209 219 213 201 196 193 192 173 191 197 193 199 197 203 197 188 205 202 200 207 179 212 136 93 147 77 164 172 155 163 130 92 76
317 336 357 361 380 334 393 336 249 229 238 266 236 220 216 213 194 196 190 190 183 193 194 194 196 195 207 207 196 194 197 205 144 139 200 224 217 144 88 85 118 150 118 99 131
352 355 367 360 364 360 322 403 267 236 243 238 230 230 212 215 212 198 191 193 190 195 185 194 206 193 194 196 209 208 211 208 206 132 131 141 150 83 179 117 82 128 103 90 100
390 384 385 357 343 349 355 345 364 258 234 245 234 248 232 222 217 198 209 201 169 194 196 196 193 199 189 201 189 195 208 216 216 209 208 202 180 128 166 219 217 90 81 79 90
415 399 376 342 336 335 338 371 295 257 255 256 268 242 227 191 223 220 218 195 210 196 199 194 201 197 204 193 190 208 192 183 218 199 192 217 211 154 133 170 107 189 184 239 115
422 403 359 338 326 327 326 345 336 317 285 266 249 257 252 192 217 209 216 221 215 188 178 205 206 206 196 177 207 178 197 185 191 217 209 203 188 215 137 130 210 157 203 199 147
424 394 341 335 323 312 320 327 315 273 278 278 237 252 247 259 220 217 225 214 220 227 192 196 195 193 209 198 186 189 201 199 187 204 223 199 186 202 203 208 168 147 151 211 246
277 373 338 330 324 318 297 309 320 284 265 258 280 263 243 245 234 226 199 215 224 221 225 225 212 205 206 208 204 207 200 205 216 194 185 177 205 237 188 211 125 202 141 235 206
229 371 345 348 323 326 302 310 311 297 274 310 254 272 273 242 222 225 235 240 204 214 225 231 226 229 229 227 229 227 235 236 221 228 241 220 243 258 259 256 232 259 137 297 297
322 248 354 342 336 327 306 296 299 308 281 264 268 271 272 268 258 253 259 221 228 250 240 234 235 235 230 236 224 224 233 238 239 248 245 249 276 246 242 274 302 289 124 139 148
251 273 182 339 364 355 339 316 290 303 293 290 283 253 259 271 263 254 252 238 253 240 216 216 235 246 244 238 233 231 239 242 252 256 263 251 266 272 301 298 287 291 222 131 229
220 255 317 277 368 362 362 345 319 298 287 291 286 292 282 268 258 261 269 261 242 261 265 263 250 252 254 253 231 254 248 267 278 276 291 294 314 313 318 359 351 329 340 277 139
198 222 246 312 286 306 386 341 330 334 320 287 289 280 297 295 295 284 275 269 260 278 266 270 283 275 260 254 260 268 311 311 310 416 452 449 365 327 307 305 314 295 321 323 178
155 224 217 239 314 158 190 380 392 377 341 337 327 327 326 323 309 308 306 306 305 295 289 297 291 287 338 326 324 340 404 382 359 318 309 299 293 314 128 299 289 290 295 281 282
152 149 234 229 230 380 303 279 175 245 359 392 395 384 367 361 342 336 349 352 363 357 350 368 382 369 355 332 318 305 303 285 283 283 278 283 286 280 281 272 160 278 274 276 189
161 207 149 243 205 224 326 345 356 156 251 249 255 269 285 292 327 338 336 304 305 305 304 292 292 290 291 286 280 274 268 289 288 283 281 271 263 271 268 255 268 266 274 278 277
203 219 207 147 140 199 214 299 291 288 296 298 130 249 248 255 261 269 270 273 274 276 274 273 269 266 266 265 357 309 276 269 280 269 264 266 261 255 258 259 256 257 257 254 266
187 215 217 209 171 188 200 207 235 290 289 289 279 173 293 297 303 257 250 254 252 252 266 315 321 312 288 281 268 275 266 256 259 265 257 251 257 254 253 253 248 243 247 251 256
176 190 170 220 182 164 200 197 180 182 256 288 287 290 293 290 262 203 298 300 305 302 285 285 275 267 260 264 261 252 256 252 256 249 251 246 250 240 240 241 250 247 241 246 244
197 193 188 139 223 216 150 151 158 138 153 213 277 291 280 270 266 262 267 267 266 262 281 263 257 253 250 246 241 254 259 248 169 242 233 232 236 238 236 235 240 246 242 242 175
196 194 210 189 211 221 183 206 196 129 138 143 183 249 266 260 262 263 260 167 260 256 250 252 256 247 243 254 245 226 247 243 236 244 228 241 234 227 237 229 230 245 228 245 230
201 204 205 212 192 222 218 220 196 191 144 136 146 186 200 254 262 259 253 251 248 240 250 228 171 233 230 236 241 236 230 243 234 235 236 235 245 241 239 241 229 233 235 239 240
Wind_Speed
41 28 38 52 76 79 86 88 76 98 96 94 92 89 85 86 78 77 86 82 71 81 79 83 82 73 71 74 49 62 77 55 58 58 62 36 37 42 32 19 36 29 31 35 28
32 33 23 48 66 93 87 78 93 85 97 98 96 89 88 84 87 78 83 83 78 74 70 71 83 81 83 81 81 68 71 79 52 60 60 42 12 24 46 39 31 12 37 38 38
22 30 21 42 58 81 96 77 76 105 97 99 98 96 93 88 88 85 79 77 75 75 75 67 81 86 81 75 76 67 66 64 64 71 58 58 58 52 58 36 44 38 47 49 42
16 21 43 36 52 71 95 101 95 78 90 100 102 103 97 89 91 88 85 81 80 77 81 81 71 69 70 68 79 71 67 65 77 70 60 77 79 58 54 63 46 44 45 46 42
14 13 19 26 34 58 101 97 98 93 102 104 105 102 99 98 93 90 86 80 70 70 77 76 75 73 80 81 73 67 75 71 69 65 63 51 69 71 62 59 54 49 46 39 43
20 18 19 24 48 22 59 97 91 99 96 108 94 100 99 99 95 92 88 68 83 81 80 78 79 76 81 83 75 78 79 75 75 74 67 36 64 21 71 70 62 64 51 35 13
22 21 13 12 12 44 29 73 89 81 99 107 107 88 98 99 92 95 89 87 80 85 83 84 82 81 78 79 83 83 81 79 74 68 69 72 73 65 34 26 52 63 58 44 54
29 21 15 7 12 20 56 40 90 86 96 95 94 91 90 99 100 95 90 90 86 87 80 85 82 83 83 81 81 81 79 79 78 67 66 70 69 31 72 50 33 54 46 37 43
25 11 5 14 16 19 21 47 63 89 84 96 90 97 99 98 98 93 97 95 61 88 89 88 82 86 80 83 72 71 79 77 76 70 71 71 73 64 68 78 79 42 31 28 37
10 9 22 24 22 26 21 33 65 80 89 88 87 93 89 68 98 101 99 92 95 92 92 87 90 87 88 81 71 81 67 65 78 71 66 79 76 69 68 69 41 75 68 83 52
11 21 32 31 27 31 25 39 45 57 81 86 86 91 94 66 90 83 91 95 99 80 57 92 92 92 85 58 87 63 76 66 67 84 79 75 66 85 68 68 81 68 80 78 67
18 35 34 36 32 33 32 36 53 69 69 76 77 85 87 92 84 86 99 90 94 97 80 84 85 80 93 87 73 76 82 82 62 79 77 77 68 77 83 82 73 69 68 83 90
29 40 25 35 30 38 28 38 45 61 70 73 74 79 78 83 85 84 70 85 98 94 97 98 93 89 89 91 89 89 88 82 91 84 70 64 73 87 75 76 64 80 68 72 71
32 33 22 33 25 36 31 34 42 53 65 51 71 62 71 69 67 75 89 93 70 77 89 98 96 95 97 96 96 95 96 95 89 89 89 85 80 89 89 91 84 89 62 79 77
79 26 24 17 13 20 24 26 34 39 59 61 59 61 64 72 78 81 84 68 76 87 94 89 91 99 89 92 82 82 86 86 85 89 87 91 82 84 87 83 77 74 55 58 61
97 64 41 37 15 15 22 31 23 33 41 47 52 58 64 68 72 70 78 71 82 85 66 66 84 94 98 93 81 77 82 84 91 90 91 83 83 79 65 66 72 72 54 54 65
84 92 72 65 11 9 10 4 23 35 25 39 45 49 60 67 68 65 71 72 68 74 78 82 85 84 86 92 69 90 81 85 85 86 79 73 64 66 62 44 28 25 21 21 39
66 85 92 63 61 32 5 5 9 9 28 32 40 39 40 48 51 59 65 70 69 69 73 73 70 73 75 81 77 73 67 64 61 40 31 23 13 11 11 14 14 16 10 15 44
38 85 81 90 55 29 37 6 13 13 10 13 13 20 26 32 38 37 44 47 53 49 50 55 54 56 51 51 49 47 17 13 9 11 12 12 12 18 6 19 17 7 16 4 4
31 31 73 80 83 53 48 49 32 46 19 11 7 11 15 18 22 23 25 26 25 25 24 15 18 11 10 13 14 12 15 17 17 15 16 22 27 27 24 19 11 18 14 12 22
34 74 32 88 68 78 74 63 47 25 38 37 38 39 36 34 25 19 18 24 22 22 23 22 19 17 17 17 20 22 20 19 22 26 35 34 23 23 21 10 15 13 16 20 21
74 95 72 29 25 61 70 66 61 61 61 54 14 31 31 32 31 29 28 26 25 23 22 21 21 22 22 23 24 36 33 28 36 37 32 31 24 20 16 17 18 18 18 18 25
59 89 85 72 38 53 51 62 69 61 58 56 46 23 41 36 31 25 24 25 25 24 24 27 32 41 43 46 36 37 38 31 33 31 27 18 19 18 18 17 17 13 20 19 18
45 59 43 87 47 31 54 43 44 47 62 54 51 47 41 38 32 20 32 30 32 39 40 40 45 42 38 36 38 32 32 28 26 22 19 18 21 17 14 14 17 15 14 13 13
64 57 52 15 74 72 24 26 27 19 28 60 53 55 54 55 52 48 46 41 38 35 39 43 39 35 33 30 22 24 26 24 9 25 21 18 15 15 12 12 13 11 13 13 18
61 61 75 52 79 76 40 60 54 11 20 26 44 50 46 45 44 39 39 16 40 37 34 34 37 29 25 27 24 23 27 26 24 18 16 14 12 8 10 10 12 11 7 11 8
68 65 73 78 53 79 58 65 52 41 15 15 20 40 46 42 39 38 39 38 38 35 33 25 11 26 27 26 24 24 25 21 18 15 16 14 10 10 8 7 5 4 9 7 7
Wind_Direction
237 239 227 211 216 224 227 219 225 218 221 227 227 231 231 231 230 231 233 232 229 232 231 232 238 227 230 235 229 227 243 224 232 235 238 233 225 221 215 216 222 215 208 218 214
231 235 248 218 218 222 224 223 220 220 219 225 224 232 229 232 233 231 232 233 232 233 232 233 234 240 241 239 240 232 237 245 231 228 233 232 226 232 230 215 227 214 219 217 235
240 233 245 221 216 215 219 224 218 218 217 221 224 228 228 228 232 232 232 233 232 233 234 232 238 240 235 232 241 222 224 222 227 243 227 233 235 227 237 215 217 224 238 244 238
259 261 229 228 218 214 218 217 217 219 220 219 221 223 227 234 227 230 233 233 234 234 237 237 237 238 239 243 236 223 241 224 239 235 227 245 246 232 219 241 226 227 226 240 223
278 250 245 223 225 217 215 216 217 219 218 221 220 220 225 228 227 230 231 231 227 230 235 236 237 238 242 243 226 244 242 231 243 222 239 230 240 244 234 233 218 218 225 220 221
4 283 284 247 223 209 210 216 215 219 220 221 224 220 220 222 227 230 232 234 233 234 236 237 238 237 238 242 243 244 245 247 240 249 225 226 231 200 242 243 235 236 217 241 253
351 341 279 260 239 216 193 205 215 213 221 221 222 221 219 221 226 227 232 235 240 235 234 235 237 239 239 242 243 244 246 246 232 227 248 252 252 231 231 226 239 231 226 239 225
336 324 280 220 193 192 215 192 214 215 224 224 223 221 223 222 223 226 231 233 237 239 243 240 237 241 241 244 243 245 247 248 249 228 228 230 233 216 243 243 234 246 242 253 243
325 311 222 173 163 171 183 201 195 216 221 225 222 222 220 223 223 227 226 230 235 238 240 240 242 240 247 243 248 248 248 249 251 253 250 248 244 228 239 255 255 239 242 253 250
12 135 148 141 140 148 166 168 205 213 221 224 224 223 220 226 225 226 228 233 231 236 238 241 242 244 244 251 253 250 255 247 253 252 248 252 254 237 229 242 232 244 244 254 244
76 137 140 133 134 145 145 159 178 197 210 217 221 224 223 218 223 226 230 230 231 240 244 239 240 243 248 248 250 250 254 252 252 251 253 256 253 257 227 232 257 234 253 246 230
95 130 130 133 132 143 142 161 178 207 209 213 219 224 223 226 224 227 229 233 235 237 241 242 244 248 245 249 253 253 252 256 245 258 257 258 253 259 261 259 246 232 231 254 260
63 128 105 134 142 153 166 159 172 197 211 216 218 226 226 228 227 229 229 233 236 238 239 241 242 246 248 250 252 254 255 255 256 259 252 246 256 265 256 259 236 250 233 259 250
53 119 109 141 141 155 174 164 170 191 209 201 220 218 224 228 228 229 232 233 235 240 242 243 244 247 247 249 251 254 257 258 258 261 265 261 265 270 270 267 262 266 239 266 264
39 64 99 72 105 166 178 188 183 184 208 218 217 220 219 225 230 233 235 235 237 241 241 244 247 249 253 254 256 259 262 264 264 265 267 269 269 263 263 269 274 271 241 241 237
36 41 44 54 150 169 181 188 202 192 198 207 215 232 230 226 231 233 236 240 241 244 244 247 250 251 253 258 260 262 266 268 270 269 270 268 270 269 270 270 268 270 266 240 262
39 39 41 45 67 161 170 199 217 220 219 218 223 222 228 234 239 239 237 241 246 245 247 249 251 254 256 259 259 265 267 269 269 269 265 270 271 270 272 271 270 267 257 258 240
35 38 39 39 46 55 103 120 109 188 216 231 235 239 239 237 240 241 244 245 250 247 252 253 252 253 256 259 260 260 266 268 269 266 263 260 235 231 228 238 245 252 97 42 236
45 33 38 39 43 50 44 132 190 195 189 217 231 239 245 252 256 256 252 249 250 255 258 260 254 252 267 264 266 267 254 237 178 159 166 161 169 136 164 121 136 165 79 95 344
39 52 40 38 41 60 50 51 51 58 72 108 206 215 232 242 254 263 261 262 261 262 253 257 256 234 182 153 144 146 141 132 141 137 132 128 123 125 131 144 178 96 98 98 229
21 27 47 31 43 44 58 61 64 54 64 68 69 72 75 81 88 94 101 102 108 113 116 115 118 119 120 131 134 141 150 135 128 132 126 128 138 125 135 190 117 112 89 75 70
27 25 33 47 56 45 48 54 57 59 59 59 69 68 74 75 76 81 86 90 93 96 101 109 111 120 130 136 120 120 119 124 127 130 138 130 133 143 120 99 82 70 68 74 74
22 24 24 31 43 33 41 48 49 54 58 61 56 56 62 66 71 86 92 96 101 103 105 98 101 108 110 113 118 118 120 129 136 129 138 137 115 105 96 96 96 96 79 68 73
22 23 28 25 31 33 34 44 51 55 53 60 60 62 64 64 69 78 76 81 86 93 97 106 112 113 117 117 115 123 133 134 125 118 104 90 88 90 79 73 80 80 89 81 79
15 22 25 31 24 29 38 31 52 65 57 53 62 71 74 77 79 81 81 85 94 93 113 108 113 113 111 115 123 120 118 108 149 98 99 96 92 84 85 76 66 70 69 80 226
7 13 12 22 22 23 40 29 32 58 52 51 56 58 68 72 75 82 87 80 89 93 91 97 112 115 106 108 98 108 83 97 94 99 93 98 125 104 72 88 79 79 88 81 76
356 2 5 8 24 15 25 27 31 32 54 68 56 55 56 62 71 79 81 84 87 88 98 105 95 93 98 86 84 83 86 87 79 80 84 88 114 135 102 113 97 79 75 90 66